Regional Weather Roundup
Issued by NWS

Home | Current Version | Previous Version | Text Only | Print | Product List | Glossary On
Versions: 1 2 3 4 5 6 7 8 9 10 11 12 13 14 15 16 17 18 19 20 21 22 23 24 25 26 27 28 29 30 31 32 33 34 35 36 37 38 39 40 41 42 43 44 45 46 47 48 49 50
000
ASUS43 KTOP 241859
RWRKS

WEATHER ROUNDUP FOR KANSAS
NATIONAL WEATHER SERVICE GOODLAND KS
200 PM CDT SAT JUN 24 2017

NOTE:  "FAIR" INDICATES FEW OR NO CLOUDS BELOW 12,000 FEET WITH NO
SIGNIFICANT WEATHER AND/OR OBSTRUCTIONS TO VISIBILITY.

KSZ001>006-013>018-027>032-041>047-242000-
NORTHWEST KANSAS

CITY           SKY/WX    TMP DP  RH WIND       PRES   REMARKS
GOODLAND       CLOUDY    69  52  54 S14       30.30S
HAYS           PTSUNNY   77  51  40 SE7       30.25F
HILL CITY      CLOUDY    74  49  41 S7        30.28F
RUSSELL        SUNNY     79  47  32 S9G17     30.25F
$$

KSZ061>065-074>080-084>089-242000-
SOUTHWEST KANSAS

CITY           SKY/WX    TMP DP  RH WIND       PRES   REMARKS
DODGE CITY     PTSUNNY   78  53  41 S14       30.27F
ELKHART          N/A     71  43  36 SE12        N/A
GARDEN CITY    CLOUDY    74  48  39 S12       30.28F
GREAT BEND     PTSUNNY   79  51  37 MISG      30.25F
LIBERAL        PTSUNNY   77  49  37 S12       30.27
$$

KSZ066>073-081>083-090>101-242000-
SOUTHEAST KANSAS

CITY           SKY/WX    TMP DP  RH WIND       PRES   REMARKS
CHANUTE        SUNNY     80  47  31 VRB7      30.22F
COFFEYVILLE    SUNNY     82  53  36 N6        30.21F
HUTCHINSON     SUNNY     80  44  27 SW6       30.24F
MEDICINE LODGE   N/A     79  51  37 CALM      30.23F
NEWTON         SUNNY     80  49  33 VRB6      30.25F
PARSONS        SUNNY     81  50  33 NE5       30.22F
WICHITA INTL   MOSUNNY   81  51  35 NW6       30.24F
WICHITA JABRA  SUNNY     78  49  35 CALM      30.24F
WINFIELD       SUNNY     80  52  37 E7        30.24F
$$

KSZ007>012-019>026-033>040-048>060-102>105-242000-
NORTHEAST KANSAS

CITY           SKY/WX    TMP DP  RH WIND       PRES   REMARKS
CONCORDIA      CLOUDY    79  35  20 VRB6      30.25F
EMPORIA        SUNNY     76  43  30 CALM      30.24F
LAWRENCE       SUNNY     78  44  29 NW8       30.23F
MANHATTAN      SUNNY     80  43  26 VRB6      30.24F
OLATHE IND     SUNNY     77  45  32 N9        30.24F
OLATHE EXE     SUNNY     76  41  28 NW9       30.23F
SALINA         MOSUNNY   80  44  27 CALM      30.25F
TOPEKA BILLARD SUNNY     78  47  33 W5        30.23F
TOPEKA FORBES  SUNNY     79  44  28 NW14      30.24F
$$




USA.gov is the U.S. government's official web portal to all federal, state and local government web resources and services.